Wind_Speed
12 15 14 13 15 16 16 15 14 13 12 11 9 10 12 14 14 12 13 13 12 14 14 15 13 12 13 14 14 13 13 12 9 11 9 7 5 6 7 5 8 13 8
10 12 14 14 15 15 15 15 15 14 13 12 11 11 12 11 13 13 13 13 13 13 14 13 12 12 11 11 10 10 11 11 10 8 7 8 6 7 5 3 5 9 9
15 12 12 13 13 13 14 16 16 15 13 13 12 12 12 11 11 12 13 14 14 13 12 12 12 12 11 11 10 9 7 7 7 9 6 8 7 7 8 8 10 10 10
19 18 16 14 13 13 14 16 17 16 15 15 15 14 14 14 12 12 13 14 14 13 13 14 15 15 14 13 11 10 9 8 8 7 6 6 7 9 8 9 9 9 8
24 22 22 22 21 19 18 18 19 19 19 19 18 17 17 16 16 16 15 14 14 14 14 15 16 17 15 15 13 11 11 11 10 9 8 8 8 9 10 10 11 11 10
26 21 21 25 24 21 22 20 21 21 22 22 20 20 19 18 17 17 18 17 17 16 17 18 17 18 17 17 17 15 15 14 12 11 10 10 11 12 13 11 12 12 16
26 28 28 28 28 31 29 25 23 23 23 23 24 23 21 20 21 20 20 19 20 20 20 21 22 21 19 20 18 19 19 15 15 14 14 14 14 14 14 14 14 14 17
30 30 30 30 28 28 30 29 27 27 27 26 26 25 23 19 20 19 18 20 21 21 22 25 29 27 25 24 22 19 21 19 19 17 16 17 17 17 15 15 15 17 19
25 29 31 33 34 32 31 37 37 37 37 33 28 28 26 20 23 18 13 17 19 21 22 21 21 22 22 27 30 30 25 22 23 21 17 18 18 18 17 17 17 17 18
18 22 23 26 31 32 28 29 24 23 36 37 34 34 34 28 25 22 21 13 15 21 25 28 26 28 27 24 25 29 30 27 26 21 19 19 20 19 20 20 20 21 22
13 17 19 12 9 10 13 12 20 18 20 27 26 29 30 28 27 28 28 30 31 27 27 28 32 30 25 24 25 19 23 25 26 21 22 22 22 22 23 23 23 23 23
5 7 8 8 8 10 11 9 11 12 14 18 25 27 32 31 31 32 31 29 37 34 31 29 30 24 25 25 28 27 30 27 27 26 26 24 24 25 25 26 26 26 26
10 9 9 10 11 9 11 16 18 18 17 15 13 16 20 22 27 30 26 22 29 29 35 32 19 21 19 23 29 29 31 32 33 34 34 33 32 32 29 28 28 28 28
12 12 11 10 9 14 16 14 14 15 15 16 18 19 19 19 19 19 21 23 22 23 21 20 16 19 22 24 27 26 27 29 32 36 38 40 40 34 32 31 29 29 28
11 11 12 13 14 13 12 12 11 11 12 13 13 14 16 17 18 19 18 18 20 21 23 23 24 24 23 23 22 23 23 25 29 33 37 40 38 33 31 29 29 28 28
10 11 12 12 11 11 12 15 14 15 16 18 20 20 20 20 19 19 18 18 18 20 19 20 20 20 22 22 19 22 23 23 24 27 30 32 34 32 27 31 33 34 30
7 8 8 9 8 8 11 14 16 16 16 16 17 16 16 20 21 21 20 21 21 22 21 20 22 21 22 23 21 18 17 19 16 18 18 19 23 27 17 13 12 14 18
6 6 7 7 8 9 11 12 12 14 15 16 18 20 19 19 21 20 19 22 24 22 20 20 22 21 19 15 16 17 15 15 16 16 16 15 12 11 12 14 16 17 19
7 8 9 10 10 11 11 12 12 12 13 14 15 16 16 16 16 17 17 17 18 16 16 18 20 20 22 23 19 18 17 16 14 11 11 12 15 14 14 14 15 14 14
7 7 8 9 9 9 11 12 13 13 12 11 10 10 9 9 9 7 6 6 7 9 10 10 11 11 11 11 12 9 11 14 15 15 17 16 16 17 20 22 25 27 27
11 11 10 9 9 8 8 8 10 11 13 13 13 12 11 10 9 9 9 8 7 6 6 6 7 8 8 8 8 9 11 13 13 19 21 18 13 15 17 17 19 21 25
16 17 15 13 11 10 10 11 11 10 10 10 11 11 12 12 12 12 11 10 10 9 9 9 10 10 10 11 12 13 15 15 15 15 17 18 19 20 21 23 24 25 25
17 17 18 18 19 19 18 16 15 13 11 10 10 11 11 11 10 10 10 10 10 11 10 11 11 11 12 12 13 14 15 16 16 17 17 18 18 18 19 19 20 21 21
18 18 20 22 22 21 21 20 19 18 16 16 15 15 15 13 12 13 13 14 14 14 14 14 14 15 14 14 13 14 14 16 17 18 19 19 19 20 21 20 19 19 19
21 20 19 20 24 23 23 22 22 21 20 21 21 22 21 23 19 17 17 18 18 16 17 17 16 16 16 15 15 16 15 14 15 17 19 20 20 19 19 18 18 18 17
21 19 18 20 20 22 26 25 24 25 26 26 27 26 26 21 22 21 22 18 17 18 19 22 21 19 19 19 17 16 16 17 18 17 19 22 24 22 19 17 16 15 17
Wind_Direction
207 209 209 214 219 223 233 240 237 236 241 247 249 254 256 258 255 254 257 258 260 266 270 271 277 283 286 293 298 296 296 289 281 274 296 298 304 335 330 353 351 354 359
210 214 221 222 224 228 228 233 238 238 236 234 246 253 254 270 263 261 258 263 263 268 273 274 272 275 284 290 303 303 299 294 288 279 273 282 281 293 331 335 335 311 341
221 222 221 223 223 227 235 239 238 237 237 243 250 252 251 245 243 246 253 258 263 265 265 271 272 272 276 282 299 298 294 298 291 291 272 262 267 281 281 297 312 320 322
226 224 225 225 226 233 236 240 246 247 246 246 249 248 250 253 252 253 259 263 266 267 264 267 271 270 271 270 283 274 279 286 285 285 286 282 285 289 291 285 300 309 292
219 222 226 232 234 241 248 246 247 246 245 248 251 252 252 255 261 259 258 264 271 271 268 267 266 271 270 267 271 259 258 263 268 277 274 281 288 288 285 287 296 300 297
219 229 238 243 239 243 251 248 249 250 247 247 247 248 245 251 257 261 265 263 265 273 274 271 268 265 263 266 261 251 258 256 260 262 265 265 276 274 283 289 294 299 299
230 236 242 245 254 258 265 243 248 252 250 249 251 251 253 256 257 258 266 269 267 269 271 276 276 271 262 261 267 261 256 260 258 261 265 267 274 274 283 287 287 288 285
236 241 243 250 257 262 271 251 247 247 247 253 250 248 245 253 260 264 267 269 269 271 271 268 267 270 264 266 267 266 260 257 255 257 260 266 269 274 276 280 280 281 285
253 255 249 251 257 266 265 260 253 253 250 243 239 239 246 251 256 255 264 269 272 272 271 271 272 272 268 274 263 259 261 258 254 256 254 264 269 272 275 276 274 272 274
253 255 259 264 259 259 272 268 268 261 262 234 237 244 252 243 247 250 250 253 280 288 269 264 263 268 270 273 266 272 258 257 254 251 255 261 267 270 272 271 269 266 268
262 249 241 254 239 249 246 250 255 252 252 246 245 248 241 248 251 254 259 266 277 287 282 277 276 266 265 268 275 259 246 271 256 256 258 260 264 270 273 272 269 265 262
254 242 239 230 234 235 256 218 209 202 246 274 265 239 251 254 264 268 284 262 258 280 280 288 283 272 276 271 276 265 265 264 268 271 265 266 273 274 272 269 267 267 267
257 246 240 251 260 236 231 247 255 263 281 267 265 261 269 269 270 280 281 273 263 265 282 285 272 268 255 270 273 270 268 268 266 270 262 263 272 269 265 261 262 263 263
257 260 262 268 262 248 260 265 262 261 258 260 268 269 264 268 277 276 272 270 266 270 264 271 274 272 269 266 267 264 263 259 267 270 265 265 268 252 256 260 261 262 262
256 252 257 268 271 273 269 272 272 270 267 259 256 263 272 275 273 267 265 269 271 272 271 272 275 272 271 276 267 275 275 276 279 279 279 273 256 250 253 257 259 262 262
258 260 264 266 266 268 269 257 259 265 264 259 259 260 263 270 271 264 264 269 271 275 284 285 281 278 275 277 279 279 281 277 277 278 276 272 267 264 270 276 276 277 266
256 261 264 269 259 265 263 266 275 279 273 263 263 257 256 280 277 277 276 273 274 275 280 288 284 284 286 288 284 279 273 269 267 267 265 268 270 277 285 299 294 293 289
275 279 275 272 270 268 274 276 277 277 275 276 273 275 282 284 278 281 279 283 285 278 285 288 287 285 284 280 279 274 266 268 275 278 284 288 285 278 284 287 284 283 285
279 283 287 291 294 294 295 294 292 288 284 282 282 280 282 282 281 280 281 275 270 275 279 275 274 280 282 279 277 271 272 284 285 289 299 296 285 275 277 287 288 292 297
291 298 300 295 291 288 287 290 296 299 298 297 297 297 297 300 298 299 298 295 297 293 288 284 289 287 292 294 292 297 295 285 289 279 281 279 278 281 288 283 278 280 282
296 296 290 284 282 280 281 276 273 275 281 285 285 284 286 289 291 294 300 302 300 293 290 290 299 309 311 309 311 311 301 299 297 280 276 281 285 286 275 282 287 285 289
292 295 291 289 284 282 285 284 277 270 271 272 274 273 273 272 275 278 280 281 279 276 275 280 285 289 289 288 290 291 292 292 291 288 284 284 285 286 285 287 288 288 287
276 276 276 275 280 282 285 285 280 278 279 278 277 276 271 265 261 262 265 268 272 274 274 275 278 281 284 284 283 286 290 292 293 292 290 288 286 286 286 286 287 290 293
270 269 270 272 270 271 274 275 273 271 273 277 278 275 272 266 259 260 262 266 270 274 279 282 285 287 286 286 287 290 292 294 291 288 286 284 285 286 288 291 296 300 302
275 275 275 273 274 269 263 262 263 265 269 269 276 280 277 270 255 256 262 266 267 273 281 286 286 284 284 277 277 277 280 284 290 293 294 292 289 287 291 296 300 305 312
272 276 272 267 262 264 264 259 257 259 261 268 270 268 283 272 272 274 272 262 274 278 281 285 287 291 282 280 278 282 283 287 298 306 306 300 293 294 298 301 300 301 311
Height
3210 3212 3214 3216 3218 3220 3222 3223 3225 3226 3228 3230 3231 3233 3234 3235 3235 3236 3237 3238 3239 3239 3240 3240 3241 3240 3241 3240 3240 3240 3239 3238 3238 3242 3236 3236 3235 3234 3232 3232 3232 3231 3229
3208 3210 3212 3213 3215 3217 3219 3221 3222 3224 3225 3227 3229 3230 3231 3232 3233 3234 3235 3235 3236 3237 3236 3237 3238 3238 3238 3237 3237 3236 3236 3235 3235 3235 3235 3234 3234 3234 3232 3231 3232 3231 3228
3206 3208 3209 3211 3213 3215 3217 3218 3220 3221 3223 3225 3226 3227 3228 3229 3230 3231 3231 3231 3232 3233 3233 3233 3233 3234 3235 3235 3234 3233 3234 3233 3233 3232 3233 3232 3232 3232 3231 3230 3230 3229 3227
3203 3205 3207 3209 3211 3212 3214 3215 3216 3219 3221 3222 3223 3223 3225 3225 3226 3227 3228 3228 3228 3228 3229 3230 3230 3230 3231 3232 3232 3231 3231 3231 3231 3231 3231 3231 3230 3230 3230 3229 3229 3227 3227
3198 3200 3203 3206 3206 3208 3210 3211 3213 3215 3216 3218 3219 3220 3220 3223 3224 3224 3224 3225 3226 3226 3226 3226 3226 3227 3227 3228 3228 3228 3229 3229 3229 3230 3229 3228 3229 3228 3227 3227 3226 3225 3225
3192 3195 3199 3199 3202 3204 3205 3206 3209 3211 3212 3214 3215 3215 3215 3217 3219 3220 3221 3221 3222 3222 3223 3222 3223 3224 3224 3224 3225 3225 3225 3225 3226 3226 3226 3226 3225 3225 3223 3224 3223 3223 3222
3187 3190 3193 3196 3196 3198 3198 3199 3200 3205 3206 3207 3209 3210 3211 3212 3213 3214 3215 3216 3218 3218 3218 3218 3219 3219 3220 3220 3220 3220 3221 3221 3222 3222 3222 3221 3221 3221 3221 3220 3220 3219 3218
3183 3185 3187 3190 3192 3193 3192 3193 3195 3197 3200 3201 3203 3204 3205 3206 3209 3209 3210 3211 3212 3212 3213 3214 3214 3215 3215 3215 3215 3215 3215 3215 3216 3216 3216 3217 3217 3216 3216 3216 3215 3214 3212
3179 3180 3182 3184 3185 3187 3187 3185 3187 3187 3189 3193 3195 3198 3199 3200 3202 3204 3205 3205 3205 3206 3206 3207 3208 3208 3209 3208 3207 3208 3209 3209 3209 3210 3210 3211 3211 3211 3211 3211 3211 3210 3208
3174 3175 3177 3178 3179 3179 3179 3179 3179 3179 3182 3182 3187 3190 3192 3194 3196 3198 3199 3199 3199 3199 3200 3200 3200 3201 3201 3201 3200 3200 3200 3201 3203 3203 3204 3204 3204 3204 3204 3204 3205 3204 3202
3171 3171 3172 3173 3173 3174 3174 3172 3173 3175 3176 3177 3178 3182 3186 3189 3190 3191 3191 3192 3192 3192 3191 3193 3194 3193 3193 3194 3194 3193 3193 3195 3195 3196 3197 3197 3197 3197 3198 3198 3198 3197 3196
3168 3169 3170 3170 3170 3172 3172 3172 3172 3172 3175 3175 3175 3177 3180 3182 3183 3183 3182 3179 3185 3185 3184 3185 3185 3185 3186 3185 3186 3187 3188 3189 3190 3191 3191 3191 3191 3191 3191 3191 3191 3191 3190
3165 3166 3167 3168 3168 3168 3169 3171 3171 3171 3171 3172 3172 3174 3175 3175 3176 3175 3174 3175 3177 3178 3178 3178 3178 3179 3179 3179 3180 3180 3180 3180 3181 3182 3183 3183 3183 3183 3183 3182 3183 3182 3182
3163 3163 3164 3165 3166 3167 3168 3167 3167 3168 3168 3169 3170 3170 3170 3170 3170 3170 3170 3170 3172 3173 3173 3173 3172 3172 3173 3172 3172 3172 3172 3171 3173 3173 3173 3173 3173 3173 3173 3174 3174 3174 3174
3160 3161 3162 3163 3163 3164 3164 3164 3165 3166 3166 3167 3167 3168 3168 3167 3166 3167 3167 3168 3168 3168 3168 3168 3167 3167 3166 3167 3166 3166 3167 3166 3166 3166 3166 3165 3164 3164 3164 3164 3165 3166 3166
3158 3159 3158 3159 3160 3161 3161 3162 3163 3163 3163 3164 3164 3164 3165 3164 3164 3163 3163 3164 3164 3164 3164 3163 3162 3161 3162 3161 3160 3160 3160 3161 3159 3159 3158 3159 3160 3158 3156 3157 3159 3158 3159
3156 3156 3157 3157 3157 3157 3159 3159 3159 3158 3158 3159 3158 3159 3159 3159 3158 3158 3158 3159 3158 3157 3157 3158 3158 3157 3156 3156 3155 3155 3154 3154 3154 3153 3153 3153 3153 3151 3149 3153 3152 3152 3152
3154 3154 3154 3154 3155 3155 3156 3156 3155 3155 3154 3155 3154 3154 3154 3153 3153 3154 3153 3153 3152 3151 3151 3151 3152 3152 3152 3151 3152 3152 3151 3151 3151 3150 3150 3150 3150 3150 3149 3149 3150 3148 3147
3153 3153 3152 3152 3152 3152 3152 3152 3152 3151 3151 3151 3150 3150 3150 3150 3150 3149 3148 3148 3147 3147 3146 3148 3147 3147 3149 3148 3147 3147 3147 3147 3147 3147 3147 3147 3146 3144 3144 3143 3144 3143 3141
3150 3150 3150 3150 3150 3150 3150 3149 3149 3148 3148 3148 3146 3146 3146 3146 3146 3145 3146 3145 3144 3144 3144 3143 3143 3142 3142 3142 3143 3142 3143 3143 3141 3142 3143 3142 3142 3141 3140 3139 3138 3137 3135
3146 3146 3146 3147 3147 3147 3147 3147 3147 3146 3146 3145 3144 3144 3143 3143 3142 3142 3141 3142 3141 3142 3141 3141 3141 3141 3140 3141 3140 3139 3139 3139 3137 3136 3138 3137 3134 3134 3135 3131 3130 3131 3128
3141 3140 3140 3141 3142 3142 3142 3142 3142 3142 3142 3142 3141 3140 3140 3141 3140 3140 3139 3138 3138 3139 3139 3139 3139 3138 3138 3137 3136 3136 3136 3134 3135 3132 3133 3132 3131 3129 3126 3126 3125 3123 3120
3137 3137 3137 3137 3137 3137 3137 3137 3137 3137 3137 3138 3137 3137 3137 3137 3137 3136 3136 3137 3137 3136 3137 3136 3135 3135 3135 3134 3134 3133 3131 3131 3130 3128 3128 3126 3125 3123 3122 3120 3119 3117 3116
3131 3132 3132 3132 3131 3132 3132 3132 3132 3132 3132 3132 3132 3132 3132 3132 3132 3132 3133 3133 3133 3132 3131 3132 3131 3130 3130 3130 3128 3127 3126 3126 3125 3125 3124 3122 3119 3117 3116 3115 3114 3112 3110
3126 3125 3126 3126 3125 3125 3126 3126 3126 3127 3127 3128 3128 3128 3127 3127 3127 3127 3127 3127 3127 3126 3126 3125 3125 3125 3124 3123 3123 3123 3123 3122 3121 3120 3119 3117 3115 3113 3112 3110 3109 3107 3105
3120 3119 3119 3120 3120 3119 3119 3119 3120 3121 3121 3121 3121 3121 3121 3120 3120 3120 3120 3120 3120 3119 3118 3118 3118 3118 3118 3118 3118 3117 3117 3116 3115 3113 3112 3112 3110 3109 3107 3105 3104 3103 3101